This is the latest recevied weather packets stored in our database for station/object N2ZVN. If no packets are shown the sender has not sent any weather packets the latest 10 day(s).
| Time | Temp. | Humidity | Pressure | Rain* | Wind** | Luminosity | Snow |
|---|---|---|---|---|---|---|---|
| 1777416421 | 17.78° C | 63% | 1012.3 hPa | 0 mm | - | 56 W/m² | - |
| 1777416116 | 18.33° C | 61% | 1012.6 hPa | 0 mm | - | 72 W/m² | - |
| 1777415816 | 18.33° C | 61% | 1012.4 hPa | 0 mm | - | 72 W/m² | - |
| 1777415513 | 18.89° C | 60% | 1012.1 hPa | 0 mm | - | 91 W/m² | - |
| 1777415208 | 18.33° C | 60% | 1012.3 hPa | 0 mm | - | 126 W/m² | - |
| 1777414904 | 17.78° C | 61% | 1012.4 hPa | 0 mm | - | 136 W/m² | - |
| 1777414602 | 17.78° C | 61% | 1012.3 hPa | 0 mm | - | 98 W/m² | - |
| 1777414298 | 17.78° C | 61% | 1012.2 hPa | 0 mm | - | 101 W/m² | - |
| 1777413993 | 17.78° C | 61% | 1012.2 hPa | 0 mm | - | 89 W/m² | - |
| 1777413688 | 18.33° C | 60% | 1012.2 hPa | 0 mm | - | 95 W/m² | - |
| 1777413384 | 18.33° C | 61% | 1012.2 hPa | 0 mm | - | 93 W/m² | - |
| 1777413081 | 18.33° C | 60% | 1012.3 hPa | 0 mm | - | 110 W/m² | - |
| 1777412775 | 17.78° C | 61% | 1012.2 hPa | 0 mm | - | 114 W/m² | - |
| 1777412475 | 17.78° C | 61% | 1012.4 hPa | 0 mm | - | 95 W/m² | - |
| 1777412172 | 17.78° C | 61% | 1012.1 hPa | 0 mm | - | 63 W/m² | - |
| 1777411869 | 17.78° C | 61% | 1012.5 hPa | 0 mm | - | 47 W/m² | - |
| 1777411567 | 17.78° C | 61% | 1012.5 hPa | 0 mm | - | 45 W/m² | - |
| 1777411262 | 17.78° C | 61% | 1012.3 hPa | 0 mm | - | 53 W/m² | - |
| 1777410957 | 17.78° C | 60% | 1012.7 hPa | 0 mm | - | 44 W/m² | - |
| 1777410656 | 18.33° C | 59% | 1012.6 hPa | 0 mm | - | 48 W/m² | - |
| 1777410351 | 18.33° C | 59% | 1012.5 hPa | 0 mm | - | 78 W/m² | - |
| 1777410046 | 18.33° C | 58% | 1012.3 hPa | 0 mm | - | 76 W/m² | - |
| 1777409745 | 18.33° C | 58% | 1012.4 hPa | 0 mm | - | 95 W/m² | - |
| 1777409442 | 18.33° C | 58% | 1012.4 hPa | 0 mm | - | 99 W/m² | - |
| 1777409138 | 18.33° C | 58% | 1012.3 hPa | 0 mm | - | 94 W/m² | - |
* Rain latest hour (hover to see other rain measurements)
** Current wind speed in m/s (hover to see current wind gust speed)